Regional Weather Roundup
Issued by NWS Sterling, VA

Home | Current Version | Previous Version | Graphics & Text | Print | Product List | Glossary On
Versions: 1 2 3 4 5 6 7 8 9 10 11 12 13 14 15 16 17 18 19 20 21 22 23 24 25 26 27 28 29 30 31 32 33 34 35 36 37 38 39 40 41 42 43 44 45 46 47 48 49 50
000
ASUS41 KLWX 082210
RWRLWX

REGIONAL WEATHER ROUNDUP
NATIONAL WEATHER SERVICE BALTIMORE MD/WASHINGTON DC
500 PM EST MON FEB 08 2016

Note: "FAIR" indicates few or no clouds below 12,000 feet
with no significant weather and/or obstructions to visibility.
 TC=TEMPERATURE CELSIUS

 * =Non NWS site. Station does not report precipitation (e.g. rain,
    snow, etc.), thunder, or fog.

DCZ001-MDZ009-015-VAZ040>042-051-053>054-082300-
WASHINGTON METRO

CITY           SKY/WX    TMP DP  RH WIND       PRES   REMARKS
WASHINGTON NAT CLOUDY    45  29  53 S6        29.70R
DULLES         CLOUDY    44  26  49 SE8       29.66F
ANDREWS AFB    CLOUDY    42  30  62 SE9       29.68S
FT BELVOIR     MOCLDY    45  27  49 SE6       29.68S
QUANTICO       CLOUDY    44  30  57 SE13      29.69F
COLLEGE PARK*  CLOUDY    45  30  57 SE6       29.69R
LEESBURG*      CLOUDY    46  30  53 SE6       29.67R
MANASSAS*      PTCLDY    45  28  53 SE7       29.67S
GAITHERSBURG*  CLOUDY    43  27  52 SE7       29.71S

$$

MDZ006>007-011-014-082300-
BALTIMORE METRO

CITY           SKY/WX    TMP DP  RH WIND       PRES   REMARKS
BWI AIRPORT    CLOUDY    41  29  62 E12       29.70R
MD SCIENCE CTR   N/A     42  28  57 MISG      29.69R
MARTIN STATE   CLOUDY    43  32  65 E5        29.73R
ANNAPOLIS      CLOUDY    40  32  73 E6        29.71S
FORT MEADE*    CLOUDY    41  30  65 SE7       29.72R

$$

MDZ012-015-019>023-082300-
MARYLAND EASTERN SHORE

CITY           SKY/WX    TMP DP  RH WIND       PRES   REMARKS
OCEAN CITY     CLOUDY    39  32  76 E9        29.75S
SALISBURY      CLOUDY    40  33  76 S8        29.74R
BAY BRIDGE AP*   N/A     41  30  65 CALM      29.72R
CAMBRIDGE*     MOCLDY    41  32  70 CALM      29.72R
EASTON*        CLOUDY    43  32  65 VRB5      29.75S

$$

MDZ017>025-082300-
SOUTHERN MARYLAND

CITY           SKY/WX    TMP DP  RH WIND       PRES   REMARKS
PATUXENT RIVER CLOUDY    41  31  67 SE9       29.71S
ST INIGOES     CLOUDY    42  31  64 SE7       29.71S
LEONARDTOWN*   CLOUDY    41  30  65 SE6       29.72S

$$

MDZ003>005-082300-
NORTH CENTRAL MARYLAND

CITY           SKY/WX    TMP DP  RH WIND       PRES   REMARKS
FREDERICK*     CLOUDY    43  34  70 CALM      29.69S
HAGERSTOWN APT CLOUDY    42  24  49 SE7       29.64S
WESTMINSTER*   MOCLDY    43  34  70 S6        29.66S

$$

MDZ501>502-082300-
WESTERN MARYLAND

CITY           SKY/WX    TMP DP  RH WIND       PRES   REMARKS
OAKLAND*       CLOUDY    32  30  93 S6        29.55R FOG
CUMBERLAND*    CLOUDY    43  23  45 SE7       29.65R

$$

VAZ025>031-082300-
SHENANDOAH VALLEY

CITY           SKY/WX    TMP DP  RH WIND       PRES   REMARKS
WINCHESTER*    CLOUDY    43  25  49 SE8       29.63S
FRONT ROYAL*   CLOUDY    43  23  45 SE7       29.61S
LURAY*         CLOUDY    45  25  45 S3        29.61S
NEW MARKET*    CLOUDY    44  27  50 SW6       29.60S
STAUNTON*      CLOUDY    47  28  47 S7        29.64R
WAYNESBORO*    CLOUDY    41  25  52 S12       29.63R

$$

WVZ021-048>050-054>055-082300-
EASTERN WEST VIRGINIA PANHANDLE

CITY           SKY/WX    TMP DP  RH WIND       PRES   REMARKS
MARTINSBURG    CLOUDY    43  23  45 E3        29.64S
PETERSBURG*    CLOUDY    44  29  56 CALM      29.62R

$$

VAZ036>039-050-082300-
CENTRAL FOOTHILLS

CITY           SKY/WX    TMP DP  RH WIND       PRES   REMARKS
CHARLOTTESVILL CLOUDY    46  23  40 S7        29.64R
CULPEPER*      CLOUDY    45  24  44 CALM      29.66S
ORANGE*        CLOUDY    46  23  39 CALM      29.67S
GORDONSVILLE*  CLOUDY    46  25  44 CALM      29.65R
WARRENTON*     CLOUDY    46  30  53 E7        29.65S

$$

VAZ055>057-082300-
NORTH AND CENTRAL PIEDMONT

CITY           SKY/WX    TMP DP  RH WIND       PRES   REMARKS
FREDERICKSBRG* FAIR      45  31  57 E9        29.67S
STAFFORD*      MOCLDY    43  29  57 E9        29.71S

$$

NCZ024-NYZ072-PAZ021-071-VAZ022-071-082300-
OTHER REGIONAL OBSERVATIONS

CITY           SKY/WX    TMP DP  RH WIND       PRES   REMARKS
NEW YORK CITY  CLOUDY    32  21  64 VRB7      29.77R
PHILADELPHIA   CLOUDY    42  25  50 E3        29.73S
PITTSBURGH     LGT RAIN  37  33  85 SW8       29.57R
ROANOKE        LGT RAIN  38  35  89 W5        29.66S FOG
RICHMOND       CLOUDY    45  28  51 SE8       29.68S
RALEIGH        MOCLDY    51  29  42 W9        29.65S

$$

ANZ530>537-082300-
MARINE OBSERVATIONS

STATION/POSITION TIME  TEMP    WIND        PRES
                       AIR SEA DIR/SP/G
                 (UTC) (F)     (DEG/KT/KT) (MB)
THOMAS PT LIGHT  2200   40 39  120/  6/  6 1006.7S
BALT KEY BRIDGE  2100   42     100/  8/  9 1005.7F
COVE POINT       2100   39     180/  5/  6 1006.9R
LEWISETTA        2100   41 41  120/  9/ 10 1006.0R
SOLOMONS ISLAND  2100   42 42  110/  7/  8   N/A
PINEY POINT      2100          160/ 10/ 11   N/A

$$




USA.gov is the U.S. government's official web portal to all federal, state and local government web resources and services.